TimeCDT,TemperatureF,Dew PointF,Humidity,Sea Level PressureIn,VisibilityMPH,Wind Direction,Wind SpeedMPH,Gust SpeedMPH,PrecipitationIn,Events,Conditions,WindDirDegrees,DateUTC
12:15 AM,68.0,66.2,94,30.07,9.0,East,5.8,-,0.00,,Clear,100,2013-10-15 05:15:00
12:35 AM,66.2,66.2,100,30.06,9.0,Calm,Calm,-,0.00,,Clear,0,2013-10-15 05:35:00
12:55 AM,66.2,66.2,100,30.06,9.0,Calm,Calm,-,0.00,,Clear,0,2013-10-15 05:55:00
1:15 AM,66.2,66.2,100,30.05,10.0,Calm,Calm,-,0.00,,Clear,0,2013-10-15 06:15:00
1:35 AM,66.2,66.2,100,30.04,9.0,Calm,Calm,-,0.00,,Partly Cloudy,0,2013-10-15 06:35:00
1:55 AM,66.2,66.2,100,30.05,9.0,Calm,Calm,-,0.00,,Mostly Cloudy,0,2013-10-15 06:55:00
2:15 AM,66.2,66.2,100,30.04,10.0,SSE,4.6,-,0.00,,Overcast,150,2013-10-15 07:15:00
2:35 AM,66.2,66.2,100,30.04,10.0,SSE,6.9,-,0.00,,Mostly Cloudy,150,2013-10-15 07:35:00
2:55 AM,66.2,66.2,100,30.02,10.0,SE,6.9,-,0.00,,Mostly Cloudy,140,2013-10-15 07:55:00
3:15 AM,66.2,66.2,100,30.03,10.0,SSE,5.8,-,0.00,,Overcast,160,2013-10-15 08:15:00
3:35 AM,66.2,66.2,100,30.03,10.0,SSE,4.6,-,0.00,,Overcast,160,2013-10-15 08:35:00
3:55 AM,66.2,66.2,100,30.03,10.0,SSE,6.9,-,0.00,,Overcast,160,2013-10-15 08:55:00
4:15 AM,66.2,66.2,100,30.04,10.0,South,5.8,-,0.00,,Overcast,170,2013-10-15 09:15:00
4:35 AM,66.2,66.2,100,30.03,9.0,SSE,5.8,-,0.00,,Overcast,160,2013-10-15 09:35:00
4:55 AM,66.2,66.2,100,30.03,8.0,SSE,6.9,-,0.00,,Overcast,150,2013-10-15 09:55:00
5:15 AM,66.2,66.2,100,30.03,10.0,SSE,9.2,-,0.00,,Mostly Cloudy,160,2013-10-15 10:15:00
5:35 AM,66.2,66.2,100,30.04,10.0,South,8.1,-,0.00,,Mostly Cloudy,170,2013-10-15 10:35:00
5:55 AM,66.2,66.2,100,30.03,10.0,SSE,8.1,-,0.00,,Overcast,160,2013-10-15 10:55:00
6:15 AM,66.2,66.2,100,30.03,10.0,SSE,8.1,-,0.00,,Mostly Cloudy,160,2013-10-15 11:15:00
6:35 AM,66.2,66.2,100,30.04,10.0,SSE,6.9,-,0.00,,Overcast,160,2013-10-15 11:35:00
6:50 AM,66.2,66.2,100,30.04,10.0,South,8.1,-,N/A,,Overcast,170,2013-10-15 11:50:00
7:50 AM,66.2,66.2,100,30.05,10.0,South,10.4,-,N/A,,Overcast,170,2013-10-15 12:50:00
8:50 AM,66.2,66.2,100,30.06,10.0,South,10.4,-,N/A,,Mostly Cloudy,170,2013-10-15 13:50:00
9:50 AM,68.0,66.2,94,30.05,10.0,SSE,8.1,-,N/A,,Overcast,160,2013-10-15 14:50:00
10:50 AM,69.8,66.2,88,30.04,10.0,South,11.5,-,N/A,,Mostly Cloudy,170,2013-10-15 15:50:00
11:50 AM,71.6,66.2,83,30.02,10.0,South,13.8,-,N/A,,Overcast,170,2013-10-15 16:50:00
12:50 PM,71.6,66.2,83,30.01,10.0,SSE,10.4,-,N/A,,Overcast,160,2013-10-15 17:50:00
1:50 PM,71.6,68.0,88,29.99,10.0,South,9.2,-,N/A,,Overcast,180,2013-10-15 18:50:00
2:50 PM,69.8,66.2,88,29.97,10.0,South,10.4,-,N/A,,Overcast,170,2013-10-15 19:50:00
3:50 PM,69.8,68.0,94,29.97,10.0,SSE,5.8,-,N/A,,Overcast,160,2013-10-15 20:50:00
4:50 PM,69.8,68.0,94,29.98,10.0,Calm,Calm,-,N/A,,Overcast,0,2013-10-15 21:50:00
6:50 PM,66.2,66.2,100,30.01,2.0,NNE,5.8,-,N/A,Rain,Light Rain,30,2013-10-15 23:50:00
7:50 PM,66.2,66.2,100,30.01,2.0,South,11.5,-,N/A,Rain,Light Rain,170,2013-10-16 00:50:00
8:55 PM,66.2,66.2,100,30.00,4.0,South,10.4,-,0.06,,Overcast,170,2013-10-16 01:55:00
9:15 PM,66.2,66.2,100,30.00,7.0,South,9.2,-,0.00,,Overcast,180,2013-10-16 02:15:00
9:35 PM,66.2,66.2,100,29.99,7.0,South,9.2,-,0.00,,Overcast,190,2013-10-16 02:35:00
9:55 PM,66.2,66.2,100,29.99,10.0,South,11.5,-,0.01,,Overcast,180,2013-10-16 02:55:00
10:15 PM,66.2,66.2,100,30.01,10.0,South,4.6,-,0.00,,Overcast,190,2013-10-16 03:15:00
10:35 PM,66.2,66.2,100,30.00,10.0,South,5.8,-,0.00,,Overcast,180,2013-10-16 03:35:00
10:55 PM,66.2,66.2,100,29.99,10.0,South,3.5,-,0.00,,Overcast,170,2013-10-16 03:55:00
11:15 PM,66.2,66.2,100,29.98,10.0,South,5.8,-,0.00,,Overcast,170,2013-10-16 04:15:00
11:35 PM,66.2,66.2,100,29.98,8.0,South,3.5,-,0.00,,Overcast,180,2013-10-16 04:35:00
11:55 PM,66.2,66.2,100,29.97,8.0,South,4.6,-,0.00,,Overcast,170,2013-10-16 04:55:00